Mazar-I-Sharif, Afghanistan

6:52 AM +0430 on March 26, 2017 (GMT +0430)
Mazar-I-Sharif

Weather History for OAMS - January, 2014

Change the Weather History Date:

Friday, January 3, 2014

  Actual Average Record
Temperature  
Mean Temperature 37 °F -  
Max Temperature 41 °F 46 °F - ()
Min Temperature 33 °F 28 °F - ()
Degree Days  
Heating Degree Days 28    
Moisture  
Dew Point 26 °F    
Average Humidity 59    
Maximum Humidity 75    
Minimum Humidity 42    
Precipitation  
Precipitation 0.00 in 0.04 in - ()
Sea Level Pressure  
Sea Level Pressure 30.36 in    
Wind  
Wind Speed 4 mph ()    
Max Wind Speed 9 mph    
Max Gust Speed -    
Visibility 5.4 miles    
Events      
T = Trace of Precipitation, MM = Missing Value Source: Averaged Metar Reports

Daily Weather History Graph

Daily Weather History Graph

Search for Another Location

Airport or City:

Trip Planner

Search our weather history database for the weather conditions in past years. The results will help you decide how hot, cold, wet, or windy it might be!

Date:

Astronomy

Jan. 03, 2014 Rise Set
Actual Time 7:13 AM +0430 4:57 PM +0430
Civil Twilight 6:45 AM +0430 5:26 PM +0430
Nautical Twilight 6:12 AM +0430 5:58 PM +0430
Astronomical Twilight 5:41 AM +0430 6:29 PM +0430
Moon 8:25 AM +0430 (1/3) 7:30 PM +0430 (1/3)
Length of Visible Light 10h 40m
Length of Day
9h 43m
Waxing Crescent, 5% of the Moon is Illuminated
Jan 3
Waxing Crescent
Jan 8
First Quarter
Jan 16
Full
Jan 24
Last Quarter
Jan 31
New

Hourly Weather History & Observations

Time (+0430) Temp. Windchill Dew Point Humidity Pressure Visibility Wind Dir Wind Speed Gust Speed Precip Events Conditions
12:20 AM 37.4 °F 33.8 °F 26.6 °F 65% 30.27 in 5.0 mi SSW 4.6 mph - N/A   Mostly Cloudy
12:30 AM 37 °F - 26 °F 53% 30.33 in 5 mi SSW 4.5 mph - -   Mostly Cloudy
1:20 AM 39.2 °F 37.0 °F 26.6 °F 61% 30.27 in 5.0 mi SSW 3.5 mph - N/A   Mostly Cloudy
1:30 AM 39 °F - 26 °F 47% 30.32 in 5 mi SSW 4.5 mph - -   Mostly Cloudy
2:20 AM 39.2 °F 35.9 °F 26.6 °F 61% 30.27 in 5.0 mi SSW 4.6 mph - N/A   Mostly Cloudy
2:30 AM 38 °F - 26 °F 50% 30.33 in 5 mi SSW 4.5 mph - -   Mostly Cloudy
3:20 AM 37.4 °F - 24.8 °F 60% 30.27 in 5.0 mi SW 2.3 mph - N/A   Mostly Cloudy
3:30 AM 38 °F - 26 °F 49% 30.34 in 5 mi SW 2.2 mph - -   Mostly Cloudy
4:20 AM 37.4 °F 33.8 °F 24.8 °F 60% 30.30 in 5.0 mi WSW 4.6 mph - N/A   Mostly Cloudy
5:20 AM 35.6 °F 29.2 °F 26.6 °F 70% 30.30 in 5.0 mi West 8.1 mph - N/A   Mostly Cloudy
5:30 AM 35 °F - 26 °F 60% 30.37 in 5 mi West 8.9 mph - -   Mostly Cloudy
6:20 AM 35.6 °F 30.7 °F 24.8 °F 65% 30.30 in 6.2 mi SW 5.8 mph - N/A   Mostly Cloudy
6:30 AM 35 °F - 26 °F 58% 30.38 in 6 mi SW 6.7 mph - -   Overcast
7:20 AM 35.6 °F 31.7 °F 24.8 °F 65% 30.33 in 6.2 mi SW 4.6 mph - N/A   Mostly Cloudy
7:30 AM 35 °F - 25 °F 55% 30.40 in 12 mi SW 4.5 mph - -   Mostly Cloudy
8:20 AM 37.4 °F - 24.8 °F 60% 30.33 in 6.2 mi SW 1.2 mph - N/A   Mostly Cloudy
8:30 AM 36 °F - 24 °F 50% 30.41 in 11 mi SW 2.2 mph - -   Mostly Cloudy
9:20 AM 37.4 °F 33.8 °F 24.8 °F 60% 30.36 in 3.7 mi West 4.6 mph - N/A   Mostly Cloudy
9:30 AM 36 °F - 24 °F 50% 30.42 in 4 mi West 4.5 mph - -   Smoke
9:34 AM 37.4 °F - 24.8 °F 60% 30.36 in 2.8 mi West 2.3 mph - N/A   Smoke
10:20 AM 37.4 °F - 24.8 °F 60% 30.36 in - SW 2.3 mph - N/A   Smoke
10:30 AM 38 °F - 25 °F 46% 30.42 in 3 mi SW 2.2 mph - -   Smoke
11:20 AM 37.4 °F 33.8 °F 24.8 °F 60% 30.33 in 2.8 mi WNW 4.6 mph - N/A   Smoke
11:30 AM 38 °F - 26 °F 49% 30.40 in 3 mi WNW 4.5 mph - -   Smoke
12:20 PM 37.4 °F - 26.6 °F 65% 30.33 in 3.1 mi WNW 2.3 mph - N/A   Smoke
12:30 PM 37 °F - 26 °F 53% 30.39 in 3 mi WNW 2.2 mph - -   Smoke
1:20 PM 39.2 °F 37.0 °F 26.6 °F 61% 30.33 in 3.7 mi WSW 3.5 mph - N/A   Mostly Cloudy
1:30 PM 38 °F - 26 °F 49% 30.38 in 4 mi WSW 4.5 mph - -   Smoke
2:20 PM 41.0 °F - 24.8 °F 53% 30.33 in 5.6 mi Variable 1.2 mph - N/A   Scattered Clouds
2:30 PM 40 °F - 25 °F 42% 30.38 in 6 mi 2.2 mph - -   Scattered Clouds
3:20 PM 41.0 °F - 26.6 °F 57% 30.33 in 5.6 mi West 1.2 mph - N/A   Partly Cloudy
3:30 PM 41 °F - 27 °F 46% 30.38 in 6 mi West 2.2 mph - -   Scattered Clouds
4:20 PM 39.2 °F 35.0 °F 26.6 °F 61% 30.33 in 5.6 mi SSW 5.8 mph - N/A   Partly Cloudy
4:30 PM 39 °F - 27 °F 50% 30.39 in 6 mi SSW 6.7 mph - -   Scattered Clouds
5:20 PM 35.6 °F 31.7 °F 26.6 °F 70% 30.33 in 5.6 mi South 4.6 mph - N/A   Partly Cloudy
5:30 PM 36 °F - 27 °F 61% 30.41 in 6 mi South 4.5 mph - -   Scattered Clouds
6:20 PM 35.6 °F 31.7 °F 26.6 °F 70% 30.36 in 5.6 mi South 4.6 mph - N/A   Partly Cloudy
6:30 PM 36 °F - 26 °F 57% 30.42 in 6 mi South 4.5 mph - -   Scattered Clouds
7:20 PM 35.6 °F - 26.6 °F 70% 30.36 in 6.2 mi South 2.3 mph - N/A   Partly Cloudy
7:30 PM 35 °F - 26 °F 61% 30.43 in 6 mi South 2.2 mph - -   Scattered Clouds
8:20 PM 33.8 °F 30.8 °F 26.6 °F 75% 30.36 in 6.2 mi South 3.5 mph - N/A   Mostly Cloudy
8:30 PM 35 °F - 26 °F 61% 30.43 in 6 mi South 4.5 mph - -   Mostly Cloudy
9:20 PM 35.6 °F - 26.6 °F 70% 30.36 in 6.2 mi South 2.3 mph - N/A   Scattered Clouds
9:30 PM 35 °F - 27 °F 63% 30.43 in 6 mi South 2.2 mph - -   Partly Cloudy
10:20 PM 35.6 °F - 26.6 °F 70% 30.36 in 6.2 mi SSE 2.3 mph - N/A   Mostly Cloudy
10:30 PM 36 °F - 27 °F 59% 30.42 in 6 mi SSE 2.2 mph - -   Mostly Cloudy
11:20 PM 35.6 °F - 26.6 °F 70% 30.36 in 6.2 mi SSW 2.3 mph - N/A   Scattered Clouds
11:30 PM 35 °F - 27 °F 64% 30.42 in 6 mi SSW 2.2 mph - -   Partly Cloudy